Moses Lake, WA

3:37 PM PDT on August 27, 2016 (GMT -0700)
Grant County International

Weather History for KMWH - August, 2012

Change the Weather History Date:

Monday, August 6, 2012

  Actual Average Record
Temperature  
Mean Temperature 82 °F 74 °F  
Max Temperature 99 °F 90 °F 102 °F (1997)
Min Temperature 64 °F 57 °F 48 °F (1985)
Degree Days  
Heating Degree Days 0 0  
Month to date heating degree days 0 0  
Since 1 June heating degree days 92 63  
Since 1 July heating degree days 6 8  
Cooling Degree Days 17 9  
Month to date cooling degree days 71 54  
Year to date cooling degree days 463 408  
Since 1 June cooling degree days 436 383  
Growing Degree Days 31 (Base 50)    
Moisture  
Dew Point 51 °F    
Average Humidity 38    
Maximum Humidity 60    
Minimum Humidity 16    
Precipitation  
Precipitation 0.00 in 0.01 in 0.06 in (2004)
Month to date precipitation 0.00 0.04  
Year to date precipitation 5.58 5.22  
Sea Level Pressure  
Sea Level Pressure 29.96 in    
Wind  
Wind Speed 5 mph (ENE)    
Max Wind Speed 13 mph    
Max Gust Speed 17 mph    
Visibility 10 miles    
Events      
T = Trace of Precipitation, MM = Missing Value Source: NWS Daily Summary

Daily Weather History Graph

Daily Weather History Graph

Search for Another Location

Airport or City:

Trip Planner

Search our weather history database for the weather conditions in past years. The results will help you decide how hot, cold, wet, or windy it might be!

Date:

Astronomy

Aug. 06, 2012 Rise Set
Actual Time 5:43 AM PDT 8:22 PM PDT
Civil Twilight 5:08 AM PDT 8:56 PM PDT
Nautical Twilight 4:24 AM PDT 9:40 PM PDT
Astronomical Twilight 3:32 AM PDT 10:31 PM PDT
Moon 10:06 PM PDT (8/6) 11:02 AM PDT (8/6)
Length of Visible Light 15h 48m
Length of Day
14h 39m
Waning Gibbous, 77% of the Moon is Illuminated
Aug 6
Waning Gibbous
Aug 9
Last Quarter
Aug 17
New
Aug 24
First Quarter
Aug 31
Full

Hourly Weather History & Observations

Time (PDT) Temp. Heat Index Dew Point Humidity Pressure Visibility Wind Dir Wind Speed Gust Speed Precip Events Conditions
12:52 AM 75.0 °F - 55.0 °F 50% 29.88 in 10.0 mi ENE 6.9 mph - N/A   Clear
1:52 AM 73.0 °F - 52.0 °F 48% 29.88 in 10.0 mi ESE 5.8 mph - N/A   Clear
2:52 AM 69.1 °F - 51.1 °F 53% 29.89 in 10.0 mi Calm Calm - N/A   Clear
3:52 AM 66.9 °F - 50.0 °F 54% 29.91 in 10.0 mi North 4.6 mph - N/A   Clear
4:52 AM 64.0 °F - 50.0 °F 60% 29.92 in 10.0 mi NNE 3.5 mph - N/A   Clear
5:52 AM 68.0 °F - 53.1 °F 59% 29.94 in 10.0 mi ESE 4.6 mph - N/A   Clear
6:52 AM 69.1 °F - 54.0 °F 58% 29.95 in 10.0 mi Calm Calm - N/A   Clear
7:52 AM 71.1 °F - 55.9 °F 59% 29.97 in 10.0 mi SSW 4.6 mph - N/A   Clear
8:52 AM 75.0 °F - 59.0 °F 57% 29.99 in 10.0 mi Variable 3.5 mph - N/A   Clear
9:52 AM 78.1 °F - 55.9 °F 46% 29.99 in 10.0 mi East 4.6 mph - N/A   Partly Cloudy
10:52 AM 79.0 °F - 55.0 °F 44% 30.01 in 10.0 mi East 6.9 mph - N/A   Clear
11:52 AM 87.1 °F 85.7 °F 55.9 °F 35% 30.01 in 10.0 mi Variable 3.5 mph - N/A   Clear
12:52 PM 91.0 °F 88.7 °F 54.0 °F 28% 30.00 in 10.0 mi SW 3.5 mph - N/A   Clear
1:52 PM 93.9 °F 91.7 °F 54.0 °F 26% 30.00 in 10.0 mi NE 4.6 mph - N/A   Clear
2:52 PM 96.1 °F - 51.1 °F 22% 29.98 in 10.0 mi South 4.6 mph - N/A   Clear
3:52 PM 98.1 °F - 46.9 °F 18% 29.97 in 10.0 mi South 8.1 mph - N/A   Clear
4:52 PM 98.1 °F - 45.0 °F 16% 29.96 in 10.0 mi WSW 8.1 mph - N/A   Clear
5:52 PM 98.1 °F - 46.9 °F 18% 29.95 in 10.0 mi West 10.4 mph - N/A   Clear
6:52 PM 96.1 °F - 45.0 °F 17% 29.94 in 10.0 mi WNW 11.5 mph - N/A   Clear
7:52 PM 93.9 °F - 45.0 °F 18% 29.94 in 10.0 mi West 3.5 mph - N/A   Clear
8:52 PM 86.0 °F - 48.0 °F 27% 29.96 in 10.0 mi WNW 6.9 mph - N/A   Clear
9:52 PM 81.0 °F - 48.9 °F 33% 29.96 in 10.0 mi NNE 4.6 mph - N/A   Clear
10:52 PM 77.0 °F - 48.0 °F 36% 29.97 in 10.0 mi NE 4.6 mph - N/A   Clear
11:52 PM 75.0 °F - 48.9 °F 40% 29.98 in 10.0 mi Calm Calm - N/A   Clear